Regional Weather Roundup
Issued by NWS

Home | Current Version | Previous Version | Text Only | Print | Product List | Glossary On
Versions: 1 2 3 4 5 6 7 8 9 10 11 12 13 14 15 16 17 18 19 20 21 22 23 24 25 26 27 28 29 30 31 32 33 34 35 36 37 38 39 40 41 42 43 44 45 46 47 48 49 50
286
ASUS43 KLMK 042202
RWRKY
KENTUCKY REGIONAL WEATHER ROUNDUP
NATIONAL WEATHER SERVICE LOUISVILLE KY
600 PM EDT WED MAY 04 2016

NOTE "FAIR" INDICATES FEW OR NO CLOUDS BELOW 12,000 FEET
WITH NO SIGNIFICANT WEATHER AND/OR OBSTRUCTIONS TO VISIBILITY.

KYZ001>023-026-027-061>063-070>075-042300-
WESTERN AND SOUTH CENTRAL KENTUCKY

CITY           SKY/WX    TMP DP  RH WIND       PRES   REMARKS
PADUCAH        MOSUNNY   67  38  34 N17G25    29.77R
HENDERSON      CLOUDY    61  43  51 N14G25    29.78R
OWENSBORO      MOSUNNY   64  39  39 N22G32    29.75R
HOPKINSVILLE   NOT AVBL
BOWLING GREEN  CLOUDY    66  51  58 NW12G17   29.71S
GLASGOW        NOT AVBL
$$

KYZ024-025-028>034-038-045-046-053-042300-
NORTH CENTRAL KENTUCKY

CITY           SKY/WX    TMP DP  RH WIND       PRES   REMARKS
LOUISVILLE/SDF LGT RAIN  58  46  64 NW6       29.71R
LOUISVILLE/LOU MOSUNNY   58  45  62 NW6       29.71S
FORT KNOX      NOT AVBL
$$

KYZ035>037-039>044-047>052-055>060-089>105-042300-
NORTHEAST KENTUCKY

CITY           SKY/WX    TMP DP  RH WIND       PRES   REMARKS
LEXINGTON      MOSUNNY   57  47  69 NW10      29.69R
COVINGTON      CLOUDY    56  40  55 NW22G32   29.68R
FRANKFORT      MOSUNNY   56  47  71 W8        29.69R
$$

KYZ054-064>069-076>088-106>120-042300-
SOUTHEAST KENTUCKY

CITY           SKY/WX    TMP DP  RH WIND       PRES   REMARKS
JACKSON        CLOUDY    51  47  86 VRB3      29.69F
LONDON         CLOUDY    56  47  71 S6        29.68F
SOMERSET       NOT AVBL
MIDDLESBORO    NOT AVBL
MONTICELLO     TSTM      57  52  83 W18       29.70
$$





USA.gov is the U.S. government's official web portal to all federal, state and local government web resources and services.